Wind_Speed
12 11 11 11 11 11 12 12 13 13 13 12 12 12 13 13 13 12 12 11 10 9 9 9 9 9 9 9 9 9 9 10 10 9 9 8 7 6 5 5 3 3 2
13 13 13 13 13 13 13 13 15 15 16 15 14 14 14 14 15 14 13 12 12 11 11 10 10 10 9 9 9 9 9 10 10 10 10 9 8 7 6 5 4 3 3
15 14 14 14 14 15 15 16 18 18 18 18 17 16 16 16 15 16 15 14 14 14 13 12 12 11 10 10 10 10 9 10 10 10 10 10 9 8 7 6 5 4 3
16 16 16 17 17 18 19 20 20 21 20 21 20 19 18 18 18 17 17 16 16 16 15 14 14 12 11 11 10 10 10 10 10 11 11 11 10 9 8 7 6 5 4
17 18 18 19 19 20 21 21 21 22 22 23 23 21 21 20 20 19 19 19 18 18 17 16 15 14 13 12 11 11 10 10 11 11 11 11 10 10 9 8 7 6 5
18 18 18 19 20 21 22 23 23 24 24 24 25 24 24 24 23 22 21 21 21 20 19 18 18 16 15 14 13 12 11 11 11 12 12 11 11 10 10 9 8 8 7
16 16 17 18 19 20 21 22 24 25 26 27 28 28 28 26 26 25 24 23 23 23 22 21 19 19 18 16 15 14 13 12 12 12 12 12 12 11 11 10 9 9 8
15 16 16 16 17 17 19 20 22 23 25 26 27 28 28 28 28 28 27 27 25 24 23 22 22 20 20 18 17 16 14 14 14 13 13 12 12 12 11 11 11 10 10
14 14 14 15 16 16 17 18 19 21 23 23 25 26 27 27 27 28 28 28 27 26 24 23 23 23 22 20 19 17 16 15 15 14 14 13 13 12 12 12 12 11 11
13 13 13 14 15 15 16 17 18 19 21 22 22 24 25 27 27 28 28 28 28 27 26 25 24 24 23 22 21 19 18 17 16 16 15 14 13 13 12 12 13 13 13
11 12 12 13 13 14 15 16 17 18 19 21 22 23 24 25 26 28 28 28 28 28 27 26 25 26 24 24 23 21 20 19 18 17 16 15 14 14 13 13 13 14 14
10 10 11 12 12 13 14 15 16 17 18 19 20 22 23 24 25 25 27 28 28 28 28 27 27 26 25 25 24 23 22 21 20 19 18 16 15 15 14 14 14 14 15
9 10 11 11 12 13 14 15 16 17 17 18 19 20 20 21 23 24 25 26 27 28 28 28 28 26 26 26 26 25 24 23 22 21 20 18 17 16 15 15 15 15 16
9 10 10 11 12 13 14 15 16 16 17 17 17 18 19 20 20 22 24 24 25 27 28 28 28 27 26 27 26 25 26 24 23 22 21 20 18 17 17 16 16 17 17
8 9 10 11 12 13 14 14 15 15 15 16 16 17 18 19 19 20 22 23 24 26 27 28 28 28 28 27 26 26 26 25 24 23 22 21 19 18 18 17 16 18 19
8 9 10 11 12 13 14 14 15 15 15 15 15 15 15 16 17 19 19 21 23 24 26 27 27 27 27 27 26 27 27 26 25 25 24 23 21 20 19 18 18 18 19
7 9 10 11 12 13 14 15 15 15 15 15 14 14 14 14 15 16 18 19 20 22 24 25 26 27 26 25 26 27 27 27 26 26 26 25 23 22 21 19 19 19 20
7 9 10 11 12 13 14 15 16 16 16 15 14 14 13 13 13 13 15 16 17 19 21 23 24 25 26 25 26 27 28 28 28 26 26 26 25 23 22 21 20 20 21
7 8 10 11 12 14 14 15 16 16 16 15 14 14 13 12 11 11 12 13 14 16 18 20 21 23 25 25 25 26 27 28 29 28 27 27 27 25 24 22 21 22 22
7 8 9 11 12 14 15 15 16 17 16 15 14 14 13 12 11 9 9 9 10 12 15 17 19 21 23 25 25 26 26 27 28 28 27 27 28 27 26 23 23 24 23
7 8 9 10 12 13 14 15 16 17 16 15 14 14 13 12 10 8 7 7 7 9 12 14 16 19 21 23 25 26 26 27 27 28 28 28 28 29 28 26 24 25 24
7 8 9 10 12 13 14 16 16 17 17 16 15 14 14 12 10 8 7 7 6 7 8 11 14 16 18 21 23 25 26 27 27 27 28 28 28 29 29 28 27 26 26
7 8 10 11 12 13 14 15 16 17 17 16 15 14 14 13 11 9 8 6 6 6 6 8 11 13 16 18 21 23 25 26 27 28 29 29 29 29 29 29 29 28 27
7 8 10 11 12 13 14 15 16 16 16 16 15 14 14 13 12 11 8 7 5 4 5 7 9 11 13 15 18 20 23 26 27 28 28 29 30 29 30 29 30 30 29
7 8 9 10 11 12 13 14 15 16 16 16 15 15 14 13 13 11 9 7 6 4 4 5 7 9 12 14 16 18 21 24 27 28 29 30 31 31 31 31 31 31 31
7 8 9 10 11 12 13 14 15 15 16 16 15 15 14 14 13 12 10 8 7 5 4 5 6 8 11 13 14 17 19 22 25 27 29 29 30 32 33 32 32 33 33
Wind_Direction
298 294 291 286 284 281 277 277 272 268 264 259 258 255 250 248 245 243 244 244 244 243 241 240 239 238 241 244 245 244 242 240 237 237 238 240 243 250 257 260 265 280 311
295 292 290 286 283 281 278 278 276 273 269 267 264 262 256 256 254 248 249 249 245 244 243 242 241 241 243 244 246 245 242 236 234 235 235 236 238 243 246 250 253 262 283
294 291 287 285 282 278 277 280 278 273 272 272 269 265 261 258 259 253 251 252 248 243 243 242 240 240 244 246 244 243 241 236 233 233 232 232 232 234 237 243 246 255 260
293 291 288 285 282 278 277 279 278 276 274 271 271 267 265 261 259 258 254 253 249 246 243 241 239 239 241 243 242 240 240 238 232 230 230 229 228 228 231 235 239 244 244
294 291 288 284 281 279 277 276 275 276 275 272 270 267 265 263 263 260 256 253 249 250 246 242 239 236 238 239 239 238 237 238 232 228 227 226 224 223 224 230 233 234 233
297 293 289 286 283 280 278 277 274 274 275 274 273 269 267 264 263 263 258 255 252 252 249 245 241 236 236 236 237 236 234 234 231 227 225 225 223 221 221 226 231 231 227
303 300 295 291 289 285 281 279 277 276 275 274 272 269 268 266 265 262 259 258 256 252 250 249 245 238 235 233 233 233 232 230 229 226 224 224 222 220 220 225 228 225 221
309 306 303 299 294 290 287 283 280 278 276 275 273 269 267 268 266 264 260 258 257 256 253 250 246 242 236 232 230 231 232 230 227 225 223 221 221 220 220 221 223 223 218
313 312 310 306 301 296 293 290 286 282 278 277 275 270 268 267 265 263 260 259 258 255 253 250 246 243 238 233 229 229 229 229 227 224 222 221 221 220 220 220 220 220 216
318 318 317 314 311 305 300 296 292 287 283 280 277 272 269 267 264 263 260 258 256 255 252 251 248 244 239 234 229 229 229 227 226 224 222 221 220 219 220 219 217 216 213
324 324 323 321 318 315 309 304 300 295 289 285 280 277 273 269 266 263 260 259 256 253 251 249 247 247 239 235 230 228 228 225 223 223 222 221 219 218 218 216 214 213 209
329 330 329 326 323 321 317 312 307 302 297 291 286 282 276 270 267 265 262 259 256 254 252 249 247 247 242 238 233 231 228 224 223 222 221 220 218 218 216 214 212 211 207
335 336 335 333 330 327 326 322 315 308 303 298 292 287 280 273 268 265 263 259 257 254 252 249 247 244 242 240 236 231 227 223 221 220 219 219 218 218 216 213 213 210 205
342 343 343 342 339 336 334 330 324 316 309 304 299 293 286 279 271 264 261 260 256 254 252 250 247 243 241 239 237 232 225 221 221 220 218 218 217 218 217 215 214 210 205
348 348 348 346 344 342 340 336 332 327 321 313 306 301 293 284 276 270 263 259 256 253 252 249 246 243 240 236 236 230 224 222 221 220 219 218 217 218 219 218 215 211 207
348 349 349 347 346 345 344 342 340 337 332 326 319 311 304 293 282 274 269 263 257 253 250 247 244 242 238 232 232 229 225 224 222 220 219 219 219 219 219 219 215 213 210
347 349 350 351 350 348 346 345 346 343 338 334 329 321 313 303 291 281 273 267 259 254 250 246 242 239 236 233 230 228 225 223 221 221 220 219 219 220 219 219 217 214 211
345 349 352 354 354 351 348 346 346 346 343 339 336 331 324 315 301 289 279 271 262 255 249 245 240 237 233 232 231 229 225 223 221 221 221 219 220 220 218 219 220 216 213
343 348 352 355 356 354 351 348 347 346 346 344 342 338 335 328 317 301 286 276 266 257 250 244 239 235 233 232 230 229 226 223 221 220 220 221 221 220 219 219 222 217 213
340 347 351 354 356 356 354 352 351 351 350 349 347 346 343 338 329 317 300 281 270 259 249 243 238 234 233 231 229 228 225 222 222 221 221 221 221 221 220 220 221 217 215
338 345 349 352 355 356 355 356 356 356 355 353 352 352 350 346 340 330 321 300 277 261 249 242 237 232 231 229 228 227 225 224 223 223 221 221 220 220 220 220 221 219 217
336 342 347 350 352 354 356 357 358 358 359 357 356 356 356 353 348 339 330 318 295 272 252 240 235 231 229 228 227 225 225 225 224 224 222 221 221 220 221 221 221 222 221
332 339 344 347 349 353 355 357 359 360 1 1 360 359 359 0 358 351 341 330 312 280 258 242 237 232 229 227 226 224 225 225 226 226 225 224 223 223 223 224 223 222 223
328 336 341 345 349 352 355 357 360 1 1 2 3 3 3 3 2 0 353 344 333 305 270 251 244 234 230 229 226 226 226 226 227 228 226 225 224 225 225 225 224 224 225
325 333 339 344 348 352 356 359 0 2 3 4 5 5 5 5 6 5 3 356 345 326 294 261 251 239 231 230 230 229 228 227 228 228 228 227 227 227 227 226 226 225 225
322 331 336 342 347 351 356 359 1 2 4 4 5 6 6 6 6 6 5 1 352 337 309 281 268 251 239 236 235 233 230 229 228 230 231 231 230 229 229 227 227 227 227
Height
5883 5882 5881 5881 5880 5879 5878 5877 5877 5876 5876 5875 5875 5875 5875 5875 5875 5876 5876 5876 5876 5876 5876 5876 5877 5877 5877 5877 5877 5878 5878 5879 5879 5880 5881 5881 5882 5882 5883 5883 5883 5883 5882
5881 5880 5879 5878 5877 5877 5876 5875 5874 5874 5873 5872 5872 5872 5872 5872 5873 5873 5873 5873 5873 5874 5874 5874 5874 5874 5875 5875 5875 5876 5876 5877 5877 5878 5879 5880 5880 5881 5882 5882 5882 5882 5882
5878 5877 5876 5875 5874 5874 5873 5872 5871 5871 5870 5869 5869 5869 5869 5869 5869 5870 5870 5870 5870 5871 5871 5871 5872 5872 5872 5873 5873 5874 5874 5875 5875 5876 5877 5878 5879 5880 5880 5881 5881 5882 5882
5875 5874 5873 5872 5871 5870 5869 5869 5867 5867 5866 5866 5866 5866 5866 5866 5866 5866 5866 5866 5867 5867 5867 5868 5869 5869 5870 5870 5871 5872 5872 5873 5873 5874 5875 5876 5877 5878 5879 5880 5881 5881 5881
5872 5871 5869 5868 5867 5866 5865 5864 5863 5863 5862 5862 5862 5862 5861 5862 5861 5862 5862 5862 5863 5863 5864 5865 5866 5866 5867 5868 5868 5869 5870 5871 5871 5872 5873 5874 5875 5876 5877 5878 5879 5880 5881
5868 5867 5865 5864 5863 5862 5861 5860 5859 5858 5858 5857 5857 5857 5857 5857 5857 5857 5857 5858 5858 5859 5860 5861 5862 5863 5864 5865 5866 5867 5868 5869 5869 5870 5871 5872 5873 5875 5876 5877 5878 5879 5880
5865 5863 5861 5860 5859 5858 5856 5855 5854 5853 5852 5852 5851 5851 5851 5851 5851 5851 5852 5852 5853 5854 5855 5856 5857 5859 5860 5861 5863 5864 5865 5866 5867 5868 5869 5870 5872 5873 5874 5875 5877 5878 5879
5862 5860 5858 5856 5855 5854 5852 5851 5849 5848 5847 5846 5845 5845 5845 5845 5846 5846 5847 5847 5848 5849 5850 5851 5853 5854 5855 5857 5859 5861 5862 5863 5865 5866 5867 5868 5870 5871 5872 5874 5875 5876 5878
5859 5857 5855 5853 5851 5850 5848 5847 5845 5843 5842 5841 5840 5839 5839 5839 5840 5840 5841 5841 5842 5844 5845 5846 5848 5849 5851 5853 5855 5857 5859 5860 5862 5863 5865 5866 5868 5869 5870 5871 5873 5874 5876
5857 5855 5853 5850 5848 5846 5844 5843 5841 5839 5837 5836 5835 5834 5833 5833 5833 5834 5834 5835 5836 5838 5839 5841 5842 5844 5846 5848 5850 5853 5855 5857 5859 5860 5862 5864 5865 5867 5868 5869 5871 5873 5874
5855 5853 5851 5848 5846 5843 5841 5839 5837 5835 5833 5831 5830 5829 5827 5827 5827 5827 5828 5829 5830 5832 5833 5835 5836 5839 5841 5843 5846 5848 5851 5853 5855 5857 5859 5861 5862 5864 5866 5867 5869 5870 5872
5853 5851 5849 5846 5844 5841 5839 5836 5834 5831 5829 5827 5825 5823 5822 5821 5821 5821 5822 5823 5824 5825 5827 5829 5831 5833 5835 5838 5841 5843 5846 5849 5851 5853 5856 5858 5860 5862 5863 5865 5866 5868 5871
5852 5850 5847 5845 5842 5839 5836 5833 5830 5828 5825 5823 5821 5819 5817 5816 5815 5815 5816 5816 5818 5819 5820 5823 5825 5827 5830 5833 5836 5838 5842 5844 5847 5850 5852 5855 5857 5859 5861 5862 5864 5866 5868
5850 5848 5846 5843 5840 5837 5834 5831 5828 5825 5822 5819 5817 5814 5812 5811 5810 5810 5810 5811 5812 5813 5815 5817 5819 5822 5824 5827 5830 5834 5837 5840 5843 5846 5849 5851 5854 5856 5858 5860 5861 5863 5866
5849 5847 5844 5842 5839 5836 5833 5829 5826 5822 5819 5816 5813 5810 5808 5806 5805 5804 5804 5805 5806 5807 5809 5811 5813 5816 5819 5822 5826 5829 5832 5836 5839 5842 5845 5848 5851 5853 5855 5857 5858 5861 5863
5848 5846 5843 5841 5838 5834 5831 5827 5824 5820 5816 5813 5809 5806 5804 5802 5800 5799 5799 5799 5800 5801 5803 5805 5808 5810 5813 5817 5820 5824 5827 5831 5834 5838 5841 5844 5847 5849 5852 5854 5856 5858 5861
5848 5845 5842 5839 5836 5833 5829 5826 5822 5818 5814 5810 5807 5803 5800 5798 5796 5794 5794 5794 5794 5795 5797 5799 5802 5805 5808 5811 5815 5818 5822 5826 5830 5833 5837 5840 5843 5846 5848 5851 5853 5856 5858
5847 5844 5841 5838 5835 5831 5828 5824 5820 5816 5812 5808 5804 5801 5797 5794 5792 5790 5789 5789 5789 5790 5791 5793 5796 5799 5802 5806 5809 5813 5817 5821 5825 5828 5832 5835 5839 5842 5845 5848 5850 5853 5855
5846 5843 5840 5837 5834 5830 5826 5822 5818 5814 5810 5806 5802 5798 5795 5792 5789 5787 5786 5785 5785 5786 5787 5789 5791 5794 5797 5801 5804 5808 5812 5816 5820 5823 5827 5831 5835 5838 5841 5844 5847 5849 5852
5845 5842 5839 5836 5833 5829 5825 5821 5817 5813 5808 5804 5800 5796 5793 5790 5787 5785 5783 5782 5782 5782 5783 5785 5787 5789 5792 5796 5799 5803 5807 5811 5815 5819 5822 5826 5830 5834 5837 5840 5843 5846 5849
5844 5841 5838 5835 5832 5828 5824 5820 5816 5812 5807 5803 5799 5795 5791 5788 5785 5783 5781 5780 5780 5780 5780 5782 5783 5785 5788 5791 5795 5799 5802 5806 5810 5814 5818 5822 5825 5829 5833 5836 5839 5843 5846
5843 5840 5837 5834 5831 5827 5824 5820 5815 5811 5806 5802 5798 5794 5791 5787 5784 5782 5780 5779 5778 5778 5778 5779 5780 5782 5784 5787 5790 5794 5798 5802 5805 5809 5813 5817 5820 5824 5828 5832 5835 5839 5842
5841 5839 5836 5833 5830 5826 5823 5819 5815 5810 5806 5802 5798 5794 5790 5787 5784 5781 5779 5777 5776 5776 5776 5777 5778 5779 5781 5783 5786 5790 5793 5797 5801 5805 5808 5812 5816 5820 5823 5827 5831 5834 5838
5840 5838 5835 5832 5829 5826 5822 5818 5814 5810 5806 5802 5797 5794 5790 5787 5784 5781 5779 5777 5775 5775 5774 5775 5776 5777 5778 5780 5782 5785 5789 5792 5796 5800 5803 5807 5811 5814 5818 5822 5826 5829 5833
5839 5837 5834 5831 5828 5825 5821 5818 5814 5810 5806 5801 5797 5794 5790 5787 5784 5781 5778 5777 5775 5774 5773 5773 5774 5775 5776 5777 5779 5782 5785 5788 5791 5794 5798 5802 5805 5809 5813 5816 5820 5824 5827
5838 5835 5833 5830 5827 5824 5821 5817 5813 5809 5805 5801 5798 5794 5790 5787 5784 5781 5778 5776 5775 5773 5773 5772 5772 5773 5774 5775 5776 5778 5781 5783 5786 5789 5792 5796 5799 5803 5806 5810 5814 5818 5821